| time (UTC) | temp F | wind direction | speed knots | gust knots | rain 1hr in | rain 24hr in | rain mn in | humidity % | barometer mb |
| 20260906210024 | 92 | 280 | 16.5 | 20.9 | 0.00 | 0.00 | 0.00 | 29 | 1010.4 |
| 20260906204523 | 92 | 280 | 13.9 | 20.9 | 0.00 | 0.00 | 0.00 | 29 | 1010.5 |
| 20260906203031 | 92 | 280 | 13.9 | 23.5 | 0.00 | 0.00 | 0.00 | 30 | 1010.8 |
| 20260906201521 | 92 | 280 | 13.9 | 22.6 | 0.00 | 0.00 | 0.00 | 31 | 1010.9 |
| 20260906200026 | 91 | 280 | 10.4 | 21.7 | 0.00 | 0.00 | 0.00 | 32 | 1010.9 |
| 20260906194519 | 91 | 280 | 12.2 | 23.5 | 0.00 | 0.00 | 0.00 | 32 | 1011.1 |
| 20260906193018 | 91 | 280 | 15.6 | 23.5 | 0.00 | 0.00 | 0.00 | 32 | 1011.3 |
| 20260906191517 | 91 | 280 | 16.5 | 26.1 | 0.00 | 0.00 | 0.00 | 32 | 1011.2 |
| 20260906190016 | 92 | 280 | 13.0 | 20.9 | 0.00 | 0.00 | 0.00 | 27 | 1011.3 |
| 20260906184515 | 92 | 280 | 12.2 | 20.9 | 0.00 | 0.00 | 0.00 | 27 | 1011.4 |
| 20260906183035 | 92 | 280 | 12.2 | 18.2 | 0.00 | 0.00 | 0.00 | 28 | 1011.6 |
| 20260906181516 | 91 | 280 | 13.0 | 20.0 | 0.00 | 0.00 | 0.00 | 27 | 1011.7 |
| 20260906180018 | 91 | 280 | 9.6 | 19.1 | 0.00 | 0.00 | 0.00 | 28 | 1011.9 |
| 20260906174506 | 90 | 280 | 12.2 | 19.1 | 0.00 | 0.00 | 0.00 | 28 | 1012.3 |
| 20260906173009 | 90 | 280 | 10.4 | 20.0 | 0.00 | 0.00 | 0.00 | 30 | 1012.6 |
| 20260906171510 | 89 | 280 | 9.6 | 15.6 | 0.00 | 0.00 | 0.00 | 31 | 1012.5 |
| 20260906170004 | 89 | 280 | 3.5 | 15.6 | 0.00 | 0.00 | 0.00 | 32 | 1012.8 |
| 20260906164502 | 89 | 280 | 9.6 | 13.9 | 0.00 | 0.00 | 0.00 | 31 | 1012.9 |
| 20260906163107 | 89 | 280 | 2.6 | 11.3 | 0.00 | 0.00 | 0.00 | 31 | 1012.9 |
| 20260906161602 | 88 | 280 | 9.6 | 16.5 | 0.00 | 0.00 | 0.00 | 31 | 1012.8 |
| 20260906160058 | 87 | 280 | 7.8 | 14.8 | 0.00 | 0.00 | 0.00 | 31 | 1012.8 |
| 20260906154554 | 87 | 280 | 3.5 | 17.4 | 0.00 | 0.00 | 0.00 | 33 | 1012.7 |
| 20260906153057 | 87 | 280 | 4.3 | 12.2 | 0.00 | 0.00 | 0.00 | 34 | 1012.6 |
| 20260906151551 | 86 | 280 | 3.5 | 11.3 | 0.00 | 0.00 | 0.00 | 34 | 1012.8 |
| 20260906150054 | 85 | 280 | 1.7 | 13.9 | 0.00 | 0.00 | 0.00 | 36 | 1012.9 |
| 20260906144553 | 84 | 280 | 1.7 | 13.9 | 0.00 | 0.00 | 0.00 | 40 | 1013.0 |
| 20260906143040 | 81 | 280 | 3.5 | 9.6 | 0.00 | 0.00 | 0.00 | 45 | 1013.0 |
| 20260906141538 | 79 | 280 | 5.2 | 9.6 | 0.00 | 0.00 | 0.00 | 51 | 1012.9 |
| 20260906140039 | 76 | 280 | 4.3 | 8.7 | 0.00 | 0.00 | 0.00 | 57 | 1012.7 |
| 20260906134527 | 74 | 280 | 3.5 | 6.1 | 0.00 | 0.00 | 0.00 | 60 | 1012.8 |
| 20260906133023 | 72 | 280 | 0.9 | 6.1 | 0.00 | 0.00 | 0.00 | 64 | 1012.7 |
| 20260906131520 | 70 | 280 | 3.5 | 9.6 | 0.00 | 0.00 | 0.00 | 66 | 1012.8 |
| 20260906130025 | 69 | 280 | 0.9 | 2.6 | 0.00 | 0.00 | 0.00 | 68 | 1012.5 |
| 20260906124517 | 68 | 280 | 0.0 | 1.7 | 0.00 | 0.00 | 0.00 | 70 | 1012.5 |
| 20260906123024 | 67 | 280 | 1.7 | 2.6 | 0.00 | 0.00 | 0.00 | 70 | 1012.3 |
| 20260906121527 | 67 | 280 | 0.9 | 2.6 | 0.00 | 0.00 | 0.00 | 69 | 1012.1 |
| 20260906120015 | 67 | 280 | 0.0 | 0.9 | 0.00 | 0.00 | 0.00 | 69 | 1012.0 |
| 20260906114517 | 68 | 280 | 0.9 | 2.6 | 0.00 | 0.00 | 0.00 | 68 | 1012.1 |
| 20260906113035 | 68 | 280 | 0.9 | 2.6 | 0.00 | 0.00 | 0.00 | 68 | 1011.9 |
| 20260906111514 | 69 | 280 | 0.9 | 2.6 | 0.00 | 0.00 | 0.00 | 66 | 1012.1 |
| 20260906110012 | 68 | 280 | 1.7 | 2.6 | 0.00 | 0.00 | 0.00 | 70 | 1012.2 |
| 20260906104513 | 67 | 280 | 2.6 | 4.3 | 0.00 | 0.00 | 0.00 | 73 | 1012.1 |
| 20260906103010 | 67 | 280 | 0.9 | 1.7 | 0.00 | 0.00 | 0.00 | 73 | 1012.2 |
| 20260906101510 | 68 | 280 | 1.7 | 2.6 | 0.00 | 0.00 | 0.00 | 73 | 1011.9 |
| 20260906100016 | 70 | 280 | 0.9 | 4.3 | 0.00 | 0.00 | 0.00 | 70 | 1011.8 |
| 20260906094507 | 66 | 280 | 1.7 | 3.5 | 0.00 | 0.00 | 0.00 | 82 | 1011.9 |
| 20260906093008 | 66 | 280 | 2.6 | 4.3 | 0.00 | 0.00 | 0.00 | 82 | 1011.8 |
| 20260906091515 | 65 | 280 | 2.6 | 4.3 | 0.00 | 0.00 | 0.00 | 82 | 1011.8 |
| 20260906090006 | 66 | 280 | 3.5 | 5.2 | 0.00 | 0.00 | 0.00 | 83 | 1011.9 |
| 20260906084503 | 66 | 280 | 1.7 | 5.2 | 0.00 | 0.00 | 0.00 | 78 | 1011.9 |
| 20260906083002 | 66 | 280 | 2.6 | 4.3 | 0.00 | 0.00 | 0.00 | 81 | 1012.1 |
| 20260906081502 | 67 | 280 | 0.9 | 2.6 | 0.00 | 0.00 | 0.00 | 80 | 1011.9 |
| 20260906080107 | 67 | 280 | 1.7 | 3.5 | 0.00 | 0.00 | 0.00 | 81 | 1011.7 |
| 20260906074612 | 67 | 280 | 1.7 | 3.5 | 0.00 | 0.00 | 0.00 | 79 | 1012.0 |
| 20260906073100 | 68 | 280 | 3.5 | 5.2 | 0.00 | 0.00 | 0.00 | 79 | 1011.8 |
| 20260906071558 | 67 | 280 | 0.9 | 2.6 | 0.00 | 0.00 | 0.00 | 78 | 1011.9 |
| 20260906064553 | 67 | 280 | 0.0 | 0.0 | 0.00 | 0.00 | 0.00 | 78 | 1011.8 |
| 20260906063050 | 68 | 280 | 0.9 | 1.7 | 0.00 | 0.00 | 0.00 | 77 | 1012.0 |
| 20260906061555 | 69 | 280 | 0.0 | 1.7 | 0.00 | 0.00 | 0.00 | 76 | 1012.0 |
| 20260906060045 | 69 | 280 | 0.9 | 2.6 | 0.00 | 0.00 | 0.00 | 75 | 1012.0 |
| 20260906054545 | 70 | 280 | 1.7 | 3.5 | 0.00 | 0.00 | 0.00 | 74 | 1012.0 |
| 20260906053044 | 70 | 280 | 2.6 | 5.2 | 0.00 | 0.00 | 0.00 | 73 | 1012.1 |
| 20260906051554 | 71 | 280 | 3.5 | 6.1 | 0.00 | 0.00 | 0.00 | 71 | 1012.1 |
| 20260906050048 | 72 | 280 | 5.2 | 7.0 | 0.00 | 0.00 | 0.00 | 69 | 1012.2 |
| 20260906044543 | 73 | 280 | 5.2 | 7.8 | 0.00 | 0.00 | 0.00 | 67 | 1012.2 |
| 20260906043043 | 73 | 280 | 5.2 | 9.6 | 0.00 | 0.00 | 0.00 | 66 | 1012.5 |
| 20260906041544 | 75 | 280 | 7.0 | 11.3 | 0.00 | 0.00 | 0.00 | 64 | 1012.5 |
| 20260906040046 | 75 | 280 | 7.0 | 10.4 | 0.00 | 0.00 | 0.00 | 63 | 1012.7 |
| 20260906034542 | 76 | 280 | 6.1 | 12.2 | 0.00 | 0.00 | 0.00 | 63 | 1012.7 |
| 20260906033046 | 76 | 280 | 6.1 | 12.2 | 0.00 | 0.00 | 0.00 | 62 | 1012.8 |
| 20260906031554 | 77 | 280 | 7.0 | 13.9 | 0.00 | 0.00 | 0.00 | 61 | 1012.7 |
| 20260906030039 | 78 | 280 | 7.8 | 13.9 | 0.00 | 0.00 | 0.00 | 54 | 1012.6 |
| 20260906024538 | 79 | 280 | 9.6 | 15.6 | 0.00 | 0.00 | 0.00 | 50 | 1012.5 |
| 20260906023037 | 81 | 280 | 9.6 | 15.6 | 0.00 | 0.00 | 0.00 | 48 | 1012.2 |
| 20260906021537 | 82 | 280 | 11.3 | 16.5 | 0.00 | 0.00 | 0.00 | 44 | 1011.9 |
| 20260906020036 | 81 | 280 | 10.4 | 13.0 | 0.00 | 0.00 | 0.00 | 44 | 1011.4 |
| 20260906014536 | 82 | 280 | 3.5 | 5.2 | 0.00 | 0.00 | 0.00 | 37 | 1011.1 |
| 20260906013035 | 80 | 280 | 2.6 | 6.1 | 0.00 | 0.00 | 0.00 | 43 | 1010.9 |
| 20260906011539 | 85 | 280 | 4.3 | 7.8 | 0.00 | 0.00 | 0.00 | 38 | 1010.9 |
| 20260906010034 | 88 | 280 | 0.0 | 2.6 | 0.00 | 0.00 | 0.00 | 31 | 1011.3 |
| 20260906004533 | 90 | 280 | 0.0 | 0.0 | 0.00 | 0.00 | 0.00 | 26 | 1010.8 |
| 20260906003033 | 92 | 280 | 0.0 | 0.9 | 0.00 | 0.00 | 0.00 | 24 | 1010.7 |
| 20260906001533 | 94 | 280 | 0.0 | 1.7 | 0.00 | 0.00 | 0.00 | 21 | 1010.6 |
| 20260906000032 | 94 | 280 | 0.0 | 0.0 | 0.00 | 0.00 | 0.00 | 21 | 1010.4 |
| 20260905234531 | 93 | 280 | 0.0 | 2.6 | 0.00 | 0.00 | 0.00 | 22 | 1010.4 |
| 20260905233031 | 93 | 280 | 0.0 | 3.5 | 0.00 | 0.00 | 0.00 | 23 | 1010.3 |
| 20260905231530 | 94 | 280 | 2.6 | 5.2 | 0.00 | 0.00 | 0.00 | 21 | 1010.2 |
| 20260905230030 | 95 | 280 | 7.0 | 12.2 | 0.00 | 0.00 | 0.00 | 22 | 1009.9 |
| 20260905224536 | 94 | 280 | 6.1 | 8.7 | 0.00 | 0.00 | 0.00 | 23 | 1009.9 |
| 20260905223027 | 93 | 280 | 3.5 | 7.0 | 0.00 | 0.00 | 0.00 | 25 | 1010.1 |
| 20260905221526 | 94 | 280 | 4.3 | 11.3 | 0.00 | 0.00 | 0.00 | 25 | 1010.2 |
| 20260905220025 | 93 | 280 | 5.2 | 8.7 | 0.00 | 0.00 | 0.00 | 26 | 1010.4 |
| 20260905214523 | 92 | 280 | 4.3 | 9.6 | 0.00 | 0.00 | 0.00 | 28 | 1010.7 |
| 20260905213023 | 91 | 280 | 6.1 | 9.6 | 0.00 | 0.00 | 0.00 | 28 | 1010.9 |
| 20260905211522 | 92 | 280 | 4.3 | 7.8 | 0.00 | 0.00 | 0.00 | 28 | 1011.4 |